[[{"header":{"parameterUnit":"m.s-1","parameterCategory":1,"la1":30.2991,"la2":30.254,"lo1":-89.0895,"lo2":-89.0444,"dy":0.0017,"dx":0.0017,"nx":28,"ny":28,"refTime":"2023-08-07T21:00:00:Z","depth":0,"parameterNumber":2,"parameterNumberName":"U-component_of_WINDS"},"data":[0,0,0,0,0,0,0,0,0,0,0,0,0,0,0,0,0,0,0,0,0,0,0,0,0,0,0,0,0,0,0,0,0,0,0,0,0,0,0,0,0,0,0,0,0,0,0,0,0,0,0,0,0,0,0,0,0,0,4.318,4.3181,0,4.3265,4.3266,4.3267,4.3246,4.3245,4.3243,4.3242,4.3332,4.3336,4.334,0,0,0,0,0,0,0,0,0,0,0,0,0,4.3002,4.3005,4.318,4.3181,4.3182,4.3265,4.3266,4.3267,4.3247,4.3245,4.3243,4.3241,4.3331,4.3335,4.334,0,0,0,0,0,0,0,0,0,0,0,0,0,4.3082,4.3006,4.3179,4.3181,4.3182,4.3265,4.3266,4.3268,4.3247,4.3245,4.3242,4.324,4.3329,4.3335,4.3341,4.3427,0,0,4.3359,4.3361,0,0,0,0,0,0,0,0,4.3078,4.3089,4.318,4.3181,4.3183,4.3242,4.3236,4.3321,4.3248,4.3223,4.3241,4.3239,4.3304,4.3312,4.3334,4.3431,4.3435,4.3359,4.3363,4.3365,4.3367,0,0,0,0,0,0,0,4.3072,4.3085,4.3213,4.3181,4.3183,4.3179,4.3188,4.3252,4.3277,4.3225,4.3223,4.3234,4.3305,4.3328,4.3336,4.3436,4.3359,4.3364,4.3368,4.337,4.361,4.3613,0,0,0,0,0,0,4.3065,4.308,4.3211,4.3216,4.3123,4.3184,4.3194,4.3226,4.3276,4.3281,4.3236,4.3232,4.3319,4.3329,4.3339,4.3444,4.3365,4.3371,4.3374,4.3607,4.3611,4.3614,0,0,0,0,0,0,4.3061,4.3077,4.3207,4.3148,4.3164,4.319,4.3226,4.3229,4.3252,4.3284,4.3288,4.3255,4.3318,4.333,4.3405,4.3447,4.3374,4.3379,4.3604,4.3608,4.3612,4.3654,0,0,0,0,0,0,4.3056,4.3076,4.3108,4.3149,4.3167,4.3272,4.3228,4.3232,4.3262,4.3259,4.3303,4.3308,4.3317,4.3397,4.3411,4.3453,4.3384,4.3601,4.3606,4.3611,4.3649,4.3659,4.3668,0,0,0,0,0,4.305,4.3117,4.311,4.3125,4.3208,4.3274,4.3285,4.3292,4.3266,4.3299,4.3319,4.3307,4.344,4.3404,4.3421,4.3465,4.3598,4.3604,4.3611,4.3645,4.3657,4.3667,0,0,0,0,0,0,4.3081,4.3122,4.3115,4.3196,4.3232,4.327,4.3312,4.3305,4.3349,4.3344,4.3352,4.3362,4.3439,4.346,4.3419,4.3552,4.3515,4.3525,4.3536,4.3547,4.3557,4.355,4.3389,0,0,0,0,0,4.3097,4.3146,4.318,4.3249,4.3267,4.3287,4.3315,4.3318,4.3355,4.337,4.3396,4.3434,4.3484,4.3517,4.3565,4.3652,4.3662,4.3691,4.37,4.3708,4.3716,4.3765,4.3778,4.3635,4.3635,4.3635,0,0,4.3131,4.316,4.319,4.3256,4.3283,4.3335,4.3299,4.3355,4.3394,4.3379,4.3451,4.3472,4.3514,4.3596,4.3633,4.3615,4.3758,4.3716,4.3721,4.3726,4.3772,4.3786,4.3798,4.3639,4.3638,4.3638,0,0,4.322,4.3246,4.3306,4.3335,4.3377,4.339,4.3404,4.3444,4.3457,4.3529,4.352,4.3566,4.3652,4.3683,4.371,4.3811,4.3802,4.3827,4.3875,4.3922,4.3934,4.3944,4.398,4.3993,4.3835,4.3835,4.3835,0,4.3257,4.3333,4.3339,4.3396,4.3425,4.3413,4.3475,4.3503,4.3559,4.358,4.3559,4.3667,4.3695,4.3784,4.3809,4.3831,4.3848,4.3821,4.3931,4.3942,4.3951,4.3986,4.4,4.3838,4.3837,4.3837,4.3837,0,4.3377,4.343,4.3474,4.3528,4.3562,4.3622,4.3637,4.3672,4.3671,4.3687,4.3761,4.3794,4.3849,4.387,4.3871,4.3959,4.3947,4.3929,4.3892,4.3967,4.4,4.4014,4.3842,4.3841,4.384,4.3839,0,0,4.3487,4.3543,4.3559,4.3584,4.363,4.3671,4.3731,4.3783,4.3813,4.3852,4.3902,4.3976,4.3959,4.399,4.3994,4.4035,4.4114,4.4012,4.4013,4.403,4.4215,4.4228,4.4243,4.4108,4.411,4.4113,4.4211,0,4.358,4.3683,4.369,4.3784,4.3834,4.3824,4.3875,4.391,4.3926,4.3971,4.399,4.4042,4.4016,4.4034,4.4075,4.4096,4.4151,4.4089,4.4156,4.4158,4.4145,4.426,4.4275,4.4366,4.4224,4.4226,4.4228,0,4.3702,4.3744,4.3843,4.3882,4.3903,4.3949,4.3998,4.4041,4.4081,4.409,4.4124,4.4123,4.4184,4.4145,4.4231,4.4189,4.4217,4.4231,4.4235,4.4242,4.4197,4.427,4.4395,4.4409,4.4248,4.4246,4.4245,0,4.3773,4.3855,4.3924,4.3945,4.3993,4.4026,4.4047,4.4084,4.4115,4.4158,4.4179,4.4229,4.4257,4.4296,4.4309,4.4279,4.4395,4.4357,4.4405,4.4404,4.4429,4.4428,4.4561,4.4447,4.4447,4.4447,4.4447,0,4.3876,4.3937,4.3956,4.3999,4.4067,4.4075,4.4143,4.4163,4.4195,4.4243,4.4238,4.4282,4.4296,4.4343,4.4354,4.4424,4.4436,4.4446,4.4448,4.4446,4.4445,4.4465,4.4459,4.4451,4.445,4.4449,4.4448,0,4.3967,4.3982,4.4057,4.4096,4.4107,4.4156,4.419,4.4231,4.4247,4.4307,4.4321,4.4346,4.4401,4.4418,4.4485,4.4492,4.4574,4.457,4.456,4.456,4.4608,4.4603,4.4758,4.4779,4.4652,4.4653,4.4654,0,4.4031,4.4078,4.4121,4.4152,4.4175,4.4225,4.4256,4.4267,4.43,4.4349,4.4385,4.4439,4.4484,4.4573,4.4598,4.4649,4.4647,4.4697,4.4654,4.4652,4.4648,4.4645,4.465,4.4706,4.4707,4.4708,4.4709,0,4.4145,4.415,4.4196,4.4245,4.4282,4.4321,4.4359,4.4385,4.4401,4.4439,4.4495,4.4529,4.4597,4.4652,4.4704,4.4728,4.4722,4.4722,4.4736,4.4735,4.4727,4.4732,4.4582,4.4719,4.4718,4.4717,4.4716,4.4716,4.4225,4.4265,4.4303,4.4354,4.4383,4.4418,4.4459,4.448,4.4527,4.4582,4.4586,4.4647,4.4686,4.4755,4.4781,4.483,4.4815,4.4835,4.484,4.4845,4.4849,4.472,4.4839,4.4839,4.4839,4.4839,4.4839,0,4.4338,4.4361,4.4408,4.4461,4.4501,4.4491,4.4532,4.4567,4.462,4.4657,4.47,4.4765,4.4818,4.4847,4.49,4.4934,4.4932,4.4947,4.4945,4.4951,4.4859,4.4842,4.4948,4.4948,4.4948,4.4948,4.4948,4.4947,4.4402,4.447,4.448,4.4564,4.4587,4.4646,4.4671,4.4704,4.4732,4.4805,4.4849,4.4867,4.49,4.4956,4.5005,4.5012,4.5032,4.5049,4.5054,4.4968,4.4957,4.4946,4.493,4.5053,4.5053,4.5142,4.5142,4.5143]},{"header":{"parameterUnit":"m.s-1","parameterCategory":1,"la1":30.2991,"la2":30.254,"lo1":-89.0895,"lo2":-89.0444,"dy":0.0017,"dx":0.0017,"nx":28,"ny":28,"refTime":"2023-08-07T21:00:00:Z","depth":0,"parameterNumber":3,"parameterNumberName":"V-component_of_WINDS"},"data":[0,0,0,0,0,0,0,0,0,0,0,0,0,0,0,0,0,0,0,0,0,0,0,0,0,0,0,0,0,0,0,0,0,0,0,0,0,0,0,0,0,0,0,0,0,0,0,0,0,0,0,0,0,0,0,0,0,0,1.579,1.579,0,1.577,1.577,1.577,1.5756,1.5756,1.5756,1.5756,1.5734,1.5733,1.5733,0,0,0,0,0,0,0,0,0,0,0,0,0,1.5816,1.5815,1.579,1.579,1.579,1.577,1.577,1.5769,1.5756,1.5756,1.5756,1.5756,1.5734,1.5733,1.5733,0,0,0,0,0,0,0,0,0,0,0,0,0,1.5801,1.5815,1.579,1.5781,1.578,1.577,1.577,1.5769,1.5756,1.5756,1.5756,1.5756,1.5734,1.5733,1.5732,1.573,0,0,1.573,1.573,0,0,0,0,0,0,0,0,1.5802,1.58,1.5783,1.5782,1.578,1.5766,1.577,1.5756,1.5756,1.5765,1.5756,1.5756,1.5744,1.5743,1.5739,1.5729,1.5728,1.573,1.573,1.5729,1.5729,0,0,0,0,0,0,0,1.5803,1.5801,1.5782,1.5782,1.5781,1.5777,1.5775,1.5768,1.5756,1.5764,1.5763,1.5761,1.5744,1.574,1.5738,1.5728,1.573,1.5729,1.5729,1.5729,1.5714,1.5714,0,0,0,0,0,0,1.5806,1.5802,1.5783,1.5782,1.5791,1.5777,1.5774,1.577,1.5756,1.5753,1.5761,1.5761,1.5741,1.5739,1.5738,1.5733,1.5729,1.5728,1.5728,1.5714,1.5714,1.5714,0,0,0,0,0,0,1.5806,1.5804,1.5784,1.5791,1.5789,1.5776,1.5772,1.577,1.5766,1.5753,1.5751,1.576,1.5741,1.5739,1.5732,1.5732,1.5728,1.5727,1.5714,1.5714,1.5714,1.5725,0,0,0,0,0,0,1.5807,1.5804,1.5804,1.5792,1.5788,1.5779,1.5772,1.577,1.5765,1.5764,1.5751,1.5749,1.5741,1.5733,1.5731,1.5731,1.5727,1.5713,1.5714,1.5714,1.5724,1.5725,1.5726,0,0,0,0,0,1.5808,1.5808,1.5804,1.5802,1.5787,1.5779,1.5777,1.5768,1.5765,1.5764,1.5756,1.5749,1.5733,1.5733,1.573,1.573,1.5713,1.5714,1.5714,1.5724,1.5725,1.5726,0,0,0,0,0,0,1.582,1.5806,1.5802,1.5797,1.579,1.5777,1.5776,1.577,1.5762,1.5761,1.575,1.5747,1.5741,1.5735,1.5735,1.5726,1.5722,1.5722,1.5731,1.5732,1.5733,1.5734,1.5726,0,0,0,0,0,1.5822,1.5817,1.5805,1.5802,1.5799,1.5788,1.5784,1.5778,1.5769,1.5765,1.5756,1.5748,1.574,1.5736,1.5728,1.5723,1.572,1.5722,1.5723,1.5724,1.5723,1.5719,1.572,1.5714,1.5714,1.5714,0,0,1.5827,1.5818,1.5816,1.5805,1.5798,1.5792,1.5785,1.578,1.5775,1.5764,1.5758,1.5751,1.574,1.5734,1.5731,1.5728,1.5724,1.5724,1.5725,1.5724,1.572,1.572,1.5721,1.5714,1.5714,1.5714,0,0,1.5832,1.5825,1.5822,1.5816,1.5806,1.5798,1.5797,1.5786,1.5781,1.5774,1.5765,1.5759,1.5747,1.574,1.5734,1.5736,1.5729,1.5734,1.5738,1.5734,1.5735,1.5735,1.5735,1.5735,1.5734,1.5734,1.5734,0,1.5838,1.583,1.5821,1.5816,1.5811,1.5801,1.5798,1.5791,1.5779,1.5776,1.5773,1.5757,1.5749,1.5741,1.5742,1.5738,1.5736,1.5735,1.5736,1.5736,1.5736,1.5736,1.5736,1.5734,1.5734,1.5734,1.5734,0,1.5839,1.5833,1.5832,1.5821,1.5816,1.5811,1.5801,1.5796,1.579,1.5783,1.5775,1.5766,1.5756,1.5753,1.5747,1.5744,1.5742,1.5738,1.5734,1.5737,1.5737,1.5737,1.5735,1.5735,1.5735,1.5734,0,0,1.5851,1.5835,1.5834,1.5829,1.5817,1.5812,1.5807,1.5798,1.5794,1.5786,1.578,1.577,1.5766,1.5759,1.5752,1.5749,1.575,1.5745,1.5744,1.5746,1.5745,1.5748,1.5749,1.5746,1.5746,1.5746,1.5746,0,1.5854,1.5845,1.5836,1.583,1.5825,1.5815,1.581,1.5802,1.5795,1.5788,1.578,1.5772,1.5768,1.5764,1.576,1.5751,1.575,1.5751,1.574,1.574,1.5743,1.5749,1.5752,1.5753,1.5746,1.5746,1.5746,0,1.5857,1.5849,1.5843,1.5831,1.5828,1.5824,1.5814,1.5809,1.5799,1.5793,1.5786,1.5779,1.5772,1.5768,1.5758,1.5759,1.5754,1.5749,1.5748,1.5747,1.5743,1.5747,1.5753,1.5753,1.5745,1.5745,1.5745,0,1.5866,1.5854,1.5848,1.5844,1.583,1.5827,1.5821,1.5811,1.5806,1.5797,1.5794,1.5784,1.5779,1.5771,1.5761,1.5759,1.5751,1.5747,1.5746,1.5746,1.5745,1.5745,1.575,1.5742,1.5742,1.5742,1.5742,0,1.587,1.5866,1.5852,1.5849,1.5844,1.5834,1.5829,1.5822,1.5813,1.5807,1.5798,1.5792,1.5779,1.5772,1.5764,1.5756,1.5754,1.5749,1.5747,1.575,1.575,1.5746,1.5746,1.5742,1.5742,1.5742,1.5742,0,1.5879,1.587,1.5863,1.585,1.5847,1.5844,1.5833,1.5828,1.5821,1.5813,1.5811,1.5799,1.579,1.5778,1.5766,1.576,1.5753,1.575,1.5757,1.5755,1.5755,1.5755,1.5757,1.5757,1.575,1.575,1.575,0,1.5882,1.5879,1.5866,1.5862,1.5856,1.585,1.5845,1.5834,1.5829,1.5817,1.5814,1.5804,1.5796,1.5782,1.5771,1.5761,1.5757,1.5758,1.5755,1.5758,1.5756,1.5757,1.5756,1.5759,1.5759,1.5759,1.5759,0,1.5889,1.5884,1.5877,1.5869,1.5863,1.5855,1.5847,1.5844,1.5832,1.5826,1.5817,1.5811,1.5798,1.5788,1.5776,1.5769,1.5762,1.576,1.576,1.5763,1.5766,1.5764,1.5759,1.576,1.576,1.576,1.576,1.576,1.5894,1.5891,1.5882,1.5874,1.5867,1.586,1.5855,1.5847,1.5839,1.5828,1.5822,1.5813,1.5802,1.5786,1.5779,1.5771,1.5769,1.5768,1.5767,1.5767,1.5768,1.5768,1.5769,1.5769,1.5769,1.5769,1.5769,0,1.59,1.5893,1.5887,1.5876,1.587,1.5864,1.5855,1.585,1.5842,1.5833,1.5825,1.5815,1.5805,1.5793,1.5783,1.5778,1.5775,1.5776,1.5776,1.5774,1.5771,1.5773,1.5779,1.5779,1.5779,1.5779,1.5779,1.5779,1.5902,1.5896,1.589,1.588,1.5873,1.5865,1.586,1.5853,1.5846,1.5834,1.5826,1.5819,1.5809,1.5797,1.5788,1.5784,1.578,1.5783,1.5778,1.5775,1.5775,1.5774,1.5775,1.5782,1.5782,1.5782,1.5782,1.5782]}]]